GFSCGP_925_temp_276.txt.gz
Temp
17 15 13 14 15 16 17 17 17 18 16 14 15 16 17 17 17 16 15 15 15 16 13 13 12 11 10 9 9 8 7 6 5 5 4 5 6 8 7 8 11 11 13 14
17 13 14 15 15 15 16 17 15 16 15 14 14 14 15 17 17 17 16 14 14 13 15 14 12 11 10 9 8 7 6 5 5 4 4 4 5 6 6 8 8 9 12 13
14 13 14 14 15 14 15 15 13 13 13 14 13 14 16 17 16 16 15 15 15 15 14 13 12 11 10 9 7 7 6 5 4 4 4 4 5 5 7 8 8 8 10 13
13 13 13 14 15 13 15 13 13 13 12 13 16 12 17 15 15 15 15 14 15 14 14 13 12 11 9 8 7 6 5 5 4 4 4 4 3 3 4 5 6 6 8 11
13 12 13 14 12 12 12 12 12 13 12 12 15 12 18 17 17 16 15 15 15 14 13 12 12 10 9 8 6 6 5 5 4 4 3 3 3 4 4 6 6 6 7 10
11 11 11 11 12 12 11 12 12 13 12 9 14 12 16 17 18 17 16 15 14 14 13 13 11 10 9 8 6 5 5 5 4 3 3 3 3 4 5 5 5 6 6 8
12 11 10 11 11 11 11 12 9 11 9 11 13 11 14 19 17 17 16 16 15 14 13 11 11 10 9 7 6 5 5 4 3 3 2 3 3 3 4 4 5 5 5 6
12 13 11 10 10 11 12 11 10 13 12 11 11 12 17 16 16 16 16 15 15 13 12 12 11 10 8 7 6 5 5 4 3 2 2 2 3 3 3 4 4 4 4 6
11 12 9 9 10 10 12 11 11 8 4 8 13 16 18 17 17 15 14 15 14 14 12 12 10 10 8 7 6 5 5 4 3 2 2 2 2 2 3 3 3 4 4 5
10 12 8 9 9 10 10 11 10 8 11 11 12 14 14 16 16 15 15 13 14 14 13 11 10 9 7 6 5 5 4 4 3 2 2 2 2 2 2 3 3 3 4 4
7 10 9 8 8 10 9 9 11 11 10 10 9 12 16 19 18 17 16 15 13 11 10 9 9 8 7 6 5 4 4 3 3 2 2 2 2 2 2 2 2 3 3 4
9 10 11 10 8 8 9 11 12 9 10 8 8 10 14 13 13 14 14 14 12 11 10 8 9 8 7 6 5 4 4 3 2 2 2 2 2 2 1 2 2 2 3 4
9 10 11 11 8 7 7 9 11 9 9 8 8 11 12 13 13 11 11 10 9 9 9 8 8 8 8 7 5 5 4 3 2 2 2 2 2 1 1 2 2 2 2 3
11 7 10 13 13 10 7 8 9 9 7 9 10 10 13 9 9 8 7 5 5 4 5 5 5 6 7 6 5 4 4 3 2 2 2 2 2 2 1 1 2 3 3 4
10 8 6 6 10 11 9 8 7 7 10 12 11 8 12 7 8 8 7 7 5 1 1 0 -1 1 3 4 4 4 3 3 2 2 2 2 2 2 2 2 2 2 3 4
9 9 6 6 6 7 7 8 7 8 7 8 9 10 13 14 10 5 4 4 5 4 2 1 -1 -0 -1 2 3 3 3 3 2 2 2 2 2 2 2 2 2 2 3 4
8 8 8 12 5 4 9 7 8 7 8 9 9 13 14 13 11 10 10 7 6 7 8 4 2 3 4 5 4 3 3 3 2 3 2 2 3 3 3 2 2 2 2 2
8 8 8 8 7 11 13 11 10 9 8 9 10 10 11 12 12 11 10 10 8 9 9 8 7 6 6 5 5 4 3 3 3 2 3 2 3 3 3 3 3 3 3 2
7 9 9 10 9 11 16 8 9 9 14 10 10 11 11 11 11 11 10 9 10 9 9 10 10 8 7 6 6 5 4 3 3 3 2 2 2 3 3 3 3 3 3 4
6 7 9 7 9 9 16 11 10 11 12 15 11 11 11 10 11 12 14 9 9 12 11 10 10 9 7 6 6 5 4 3 3 3 3 2 2 2 2 3 3 3 3 3
5 5 7 8 10 10 12 9 9 13 16 13 13 11 10 10 11 11 10 9 10 10 9 9 9 8 7 6 6 5 5 5 5 4 4 4 3 2 1 1 2 3 3 3
6 7 6 8 9 10 9 8 13 15 12 12 11 12 11 10 11 11 10 7 6 6 7 8 7 7 7 6 6 5 5 7 5 4 4 4 4 3 2 1 1 1 1 3
9 9 7 9 10 11 8 12 9 10 12 12 12 11 10 10 9 11 9 8 7 7 7 7 7 7 6 7 7 6 8 7 6 5 4 4 3 3 3 3 2 2 1 1
6 8 6 8 9 9 8 9 9 10 9 10 10 10 8 9 9 9 9 8 6 7 7 8 6 6 6 6 6 7 7 7 6 5 4 4 3 3 2 2 2 1 1 1
5 7 5 5 8 8 8 8 10 10 8 8 8 9 8 8 8 9 8 6 7 8 8 8 7 7 8 8 7 7 6 5 5 5 5 4 4 3 3 2 2 3 3 2
4 6 8 9 10 13 14 13 10 8 8 8 8 7 6 6 7 8 6 8 8 8 8 7 8 8 9 8 8 8 7 6 5 5 4 4 4 3 3 2 3 3 3 2

GFSCGP_925_temp_282.txt.gz
Temp
13 13 13 12 13 14 14 14 14 14 13 11 10 10 11 11 12 10 10 9 10 11 11 11 11 10 9 9 8 8 7 6 5 5 5 5 5 6 7 7 8 9 9 11
13 13 12 13 14 14 14 14 13 12 13 11 10 11 11 11 12 11 11 10 10 11 10 10 10 9 9 9 8 7 6 6 5 4 4 3 4 5 6 6 7 8 9 10
14 12 12 13 12 13 11 13 12 11 10 10 10 12 13 14 14 13 13 12 12 11 10 10 9 9 8 8 7 6 6 5 4 4 4 4 4 5 6 6 7 8 8 11
11 11 12 13 12 11 14 11 11 10 9 13 11 15 14 14 14 13 11 10 9 10 11 10 9 8 8 7 7 6 5 5 4 4 4 3 3 3 3 4 5 7 7 11
13 11 12 13 11 11 12 10 10 10 10 10 12 10 13 13 15 13 11 10 9 9 9 9 9 9 8 7 7 6 5 4 4 3 3 3 3 4 4 5 5 7 8 9
10 10 10 10 10 10 10 10 10 9 8 7 12 11 14 13 15 15 13 11 10 10 9 9 9 8 7 7 6 5 5 4 4 3 3 3 3 4 4 5 5 5 7 11
9 10 9 10 11 10 10 9 8 10 8 11 10 9 12 14 14 14 13 11 11 10 9 8 7 7 6 6 6 5 4 4 3 3 2 3 3 3 3 4 4 4 5 8
9 12 10 9 10 10 10 10 8 13 11 11 10 12 15 13 14 14 13 13 12 11 8 7 8 7 6 6 6 5 4 4 3 3 2 2 2 3 3 4 4 4 4 6
8 11 8 8 8 9 10 8 9 5 1 7 11 12 13 13 13 12 12 12 12 11 9 8 8 7 5 5 5 5 4 3 3 2 2 2 2 3 3 3 4 4 5 6
9 11 6 8 9 9 10 9 9 5 12 12 10 11 13 15 13 11 11 10 11 10 9 7 6 6 5 5 5 4 4 3 3 3 2 2 2 2 3 3 3 4 5 6
5 9 8 7 7 8 7 7 9 9 8 9 8 13 10 14 14 12 11 10 9 8 6 5 5 6 6 5 5 4 4 3 3 2 3 2 2 2 2 3 3 3 4 6
9 8 7 8 6 7 8 10 10 8 9 4 7 11 13 12 13 12 11 10 9 8 6 4 5 5 5 5 5 4 4 3 2 2 2 2 2 2 2 2 2 3 4 5
9 8 7 9 7 6 8 8 9 8 6 5 9 12 11 10 10 9 9 8 8 8 6 4 4 4 4 5 4 4 4 3 3 2 3 3 2 2 2 3 3 3 3 4
10 4 11 13 13 8 6 6 8 8 4 7 8 11 13 9 7 8 7 5 5 4 5 3 2 3 4 5 5 4 4 3 3 2 3 2 2 2 2 2 2 3 4 5
10 9 4 3 9 10 9 7 6 7 9 10 14 9 13 10 8 8 6 7 3 3 1 1 -1 -0 3 4 4 4 4 3 3 2 3 3 2 2 2 2 3 4 5 5
8 6 4 7 3 5 6 7 6 7 4 6 8 10 13 13 10 5 6 4 4 3 1 0 -0 0 1 3 4 4 4 4 3 2 2 3 3 2 2 2 3 3 4 5
8 6 6 9 2 4 9 8 8 6 6 9 9 14 12 11 11 10 10 8 6 5 5 2 1 1 3 5 5 5 4 4 4 3 3 3 3 3 2 2 2 3 3 4
7 7 7 10 9 11 12 10 9 9 8 7 9 10 10 10 10 9 9 10 9 6 5 4 3 4 5 5 5 5 4 4 4 4 3 3 3 3 3 3 3 2 3 3
7 8 8 10 7 11 14 9 8 10 13 10 10 11 10 9 8 9 8 8 9 7 6 7 8 7 6 6 6 5 4 4 4 4 4 3 3 3 3 3 3 3 3 3
7 8 11 8 10 10 13 11 9 11 12 13 9 10 9 9 12 11 9 8 7 9 9 8 8 7 7 6 5 5 4 4 4 4 4 4 4 4 3 3 3 3 3 3
6 6 11 10 11 10 11 10 8 12 15 13 10 11 8 9 10 10 8 8 8 8 9 9 7 7 7 6 5 4 4 5 6 5 4 4 4 4 4 4 4 4 4 3
6 8 7 8 10 11 8 8 13 13 11 12 11 12 9 7 7 10 9 8 7 7 7 7 7 6 6 6 5 4 4 7 5 5 4 5 4 4 4 3 3 3 4 4
9 8 7 9 10 10 8 12 10 9 11 11 12 11 11 11 10 8 8 9 7 7 7 7 7 6 6 6 6 6 7 5 5 4 4 4 4 4 4 4 3 3 3 3
4 6 5 7 9 8 7 8 8 8 9 10 10 11 10 11 10 9 8 7 5 6 6 6 6 5 5 6 6 7 7 7 6 5 4 4 3 3 3 3 3 3 3 3
5 6 4 4 7 7 8 7 8 7 7 8 8 8 8 8 8 8 7 6 6 6 6 7 7 6 7 7 7 7 6 6 6 6 6 5 4 4 4 4 4 4 4 4
3 5 8 8 9 11 13 11 8 7 7 7 7 7 7 6 6 7 5 6 7 7 7 6 7 7 8 7 8 7 6 6 6 5 5 5 5 4 4 4 4 4 4 3

GFSCGP_925_temp_288.txt.gz
Temp
12 13 14 13 12 12 13 13 13 12 11 10 9 8 10 11 8 8 8 8 7 7 10 10 11 10 9 9 8 8 7 6 5 5 5 5 5 6 5 6 6 7 8 8
13 15 12 12 12 13 13 13 13 11 11 10 9 10 10 10 10 9 10 9 8 9 9 9 9 9 9 8 8 7 6 5 5 4 4 3 3 5 5 6 6 7 7 8
14 12 11 12 11 13 12 13 12 12 9 9 8 12 13 14 11 12 11 10 10 9 9 10 9 9 8 7 7 6 6 5 4 4 4 4 4 5 5 6 7 7 7 7
11 11 12 12 12 11 15 10 10 10 10 13 9 14 14 12 11 13 12 10 8 8 8 9 8 8 7 7 6 6 5 5 4 4 3 3 2 2 4 5 6 6 7 7
12 11 11 13 12 10 12 10 10 10 10 9 11 10 13 12 16 16 13 11 9 7 7 7 8 8 7 7 6 5 5 4 4 3 3 3 3 3 3 4 5 6 7 8
9 9 9 10 9 10 9 10 8 7 8 7 11 10 13 14 16 14 13 10 10 8 8 7 8 7 6 6 5 5 4 4 3 3 3 3 3 2 3 4 4 5 7 8
10 10 9 9 10 10 10 10 8 11 8 11 9 9 13 14 13 12 12 10 9 7 7 6 6 5 5 5 5 4 4 3 3 3 3 2 3 3 3 3 4 4 6 6
11 12 9 8 9 11 10 11 9 12 11 10 9 12 16 12 11 9 9 9 8 8 6 6 6 6 5 5 4 4 4 3 3 3 3 3 3 3 3 3 3 4 4 5
10 11 8 7 8 8 10 9 9 5 -0 6 11 12 12 13 12 11 10 10 9 8 7 8 6 5 5 4 4 4 3 3 3 3 3 3 2 3 2 3 4 4 5 5
10 10 6 7 8 8 9 8 10 6 13 12 10 11 14 16 16 14 12 11 9 8 8 6 4 4 5 4 4 3 3 3 2 3 3 3 3 2 2 3 3 3 5 5
6 10 7 7 6 8 7 7 8 9 8 9 8 14 9 13 13 14 12 10 9 8 6 5 4 4 4 4 3 3 3 3 3 3 3 3 3 2 2 2 3 4 5 6
9 9 7 7 6 6 7 10 9 9 9 4 6 11 13 10 12 11 10 9 8 8 6 4 4 3 3 4 3 3 3 2 3 3 3 2 2 2 2 2 3 4 5 6
9 8 7 9 7 6 7 8 9 7 6 5 8 11 10 9 10 9 9 9 8 7 6 3 2 2 3 3 3 3 2 2 3 4 3 3 3 2 2 2 3 4 5 6
10 4 11 14 14 8 6 6 8 8 5 7 7 10 12 9 8 9 8 6 5 4 4 3 2 1 3 3 3 3 2 2 3 4 3 3 3 2 2 2 3 4 4 5
10 10 3 3 7 11 10 6 6 6 9 10 12 8 14 9 8 7 6 7 5 4 1 1 -0 -1 2 2 3 2 3 2 3 3 3 3 3 3 3 4 4 4 5 5
8 7 4 6 2 4 7 7 5 6 4 6 7 10 14 13 10 6 7 6 6 6 3 1 0 0 1 3 3 3 3 3 3 3 3 3 3 3 3 3 4 5 5 5
8 6 7 8 2 4 9 10 7 6 6 9 9 14 13 11 11 9 9 8 7 7 6 4 2 1 3 4 5 3 3 3 3 3 3 3 3 3 3 4 4 4 5 5
7 7 6 5 4 11 12 9 9 9 9 7 9 10 11 10 9 8 7 7 7 7 7 5 2 3 4 5 5 4 3 3 3 3 3 3 2 3 3 4 4 6 5 5
6 9 7 8 5 10 14 8 8 10 13 9 10 12 10 10 9 10 8 8 6 5 6 6 6 6 5 6 5 4 3 3 3 3 3 3 3 2 2 3 3 5 5 5
7 8 9 6 11 10 12 11 8 11 12 12 8 9 9 9 13 12 11 7 6 6 7 6 6 6 6 5 5 4 3 3 3 3 4 3 3 3 3 2 3 3 4 4
4 6 10 9 13 11 11 8 8 12 14 11 8 9 8 10 11 9 7 7 7 6 7 7 6 7 7 6 5 4 3 4 5 4 4 4 3 3 3 3 3 3 3 3
8 10 11 10 13 14 7 8 13 13 11 10 9 9 8 8 8 8 7 8 7 6 5 5 5 6 6 6 6 5 4 7 5 4 4 4 4 4 3 3 3 3 3 3
11 12 12 13 13 11 8 12 9 9 11 11 10 9 10 10 11 10 8 7 6 5 5 5 5 5 5 6 6 6 8 6 5 5 5 5 4 4 4 4 4 4 4 4
5 5 7 11 9 9 7 8 9 8 11 10 10 9 8 11 10 10 7 6 5 5 4 5 5 4 5 5 6 8 8 6 6 5 5 4 4 4 4 3 3 3 2 3
5 6 4 5 8 9 8 6 8 7 8 9 8 9 9 10 9 9 7 6 5 5 5 5 5 5 6 6 6 7 6 6 6 5 5 5 5 4 4 4 3 3 3 3
3 4 10 13 9 11 12 10 6 7 7 7 6 7 7 8 7 7 5 4 4 4 5 5 6 6 7 7 7 6 6 6 6 5 5 5 5 5 4 4 4 4 4 4

GFSCGP_925_temp_291.txt.gz
Temp
12 14 15 14 12 13 13 14 14 13 10 10 10 9 12 11 8 8 8 8 8 9 9 10 10 9 8 8 8 8 7 7 6 5 5 5 5 5 5 6 6 8 8 8
13 15 11 11 12 13 13 13 13 11 10 10 9 11 10 10 11 9 10 10 9 9 9 9 10 8 8 7 7 7 7 5 5 4 4 3 4 5 5 5 6 7 7 7
14 12 11 12 12 13 12 13 13 12 9 9 7 14 14 13 11 11 11 11 10 9 9 8 9 8 8 7 7 6 6 5 4 4 4 4 4 4 4 5 6 6 7 8
11 10 11 12 13 12 15 10 10 10 11 14 9 15 14 13 12 14 12 10 9 8 8 8 8 8 7 7 6 6 5 4 4 4 3 3 3 2 3 3 5 6 7 8
12 10 11 12 12 10 12 9 10 10 10 10 11 11 14 12 17 16 13 11 10 9 7 7 7 7 7 6 6 5 5 4 4 3 3 2 2 3 3 4 5 6 7 7
9 8 10 10 9 9 8 9 9 8 9 9 11 11 15 15 17 15 13 11 10 9 8 7 7 6 6 5 5 5 4 3 3 3 3 2 2 2 3 4 4 5 6 7
10 10 8 9 10 9 10 10 10 12 10 13 9 9 14 15 13 12 12 10 10 9 8 6 6 5 5 5 5 5 4 3 3 3 3 2 2 3 3 3 3 4 5 6
11 13 9 8 9 11 10 11 11 13 13 12 9 13 17 12 12 10 8 8 8 8 7 6 6 5 5 5 4 4 3 3 2 3 3 3 2 3 3 4 3 4 5 5
10 10 7 7 7 8 10 10 9 5 0 8 12 12 13 13 12 11 10 9 9 9 8 7 5 5 4 4 4 4 3 3 2 3 3 3 3 3 3 4 3 4 6 6
11 10 6 7 8 8 9 8 10 7 13 12 11 12 15 17 16 15 14 12 11 10 8 5 4 4 4 4 4 4 3 2 2 3 3 3 3 2 3 4 4 4 5 6
7 10 7 7 7 8 7 7 8 9 8 10 9 14 10 14 15 15 13 12 10 9 7 5 4 4 4 4 4 4 3 2 2 3 3 3 2 2 2 3 4 4 5 6
10 8 7 8 6 5 7 10 10 10 9 3 6 12 13 10 11 11 10 9 9 8 7 4 3 3 3 3 3 3 3 3 3 3 2 2 2 2 2 4 5 5 5 6
10 9 8 9 8 6 7 7 9 7 6 5 10 13 11 9 10 10 9 9 8 7 7 4 2 1 2 3 3 3 3 3 3 3 2 2 2 2 2 3 4 5 6 7
10 6 12 15 14 8 5 6 8 8 6 7 8 11 12 9 8 10 8 6 6 4 4 3 2 1 2 3 3 4 3 3 3 3 2 2 2 2 2 4 4 6 6 7
10 10 3 2 5 10 9 6 6 7 9 12 11 8 13 9 9 9 7 8 6 4 3 1 1 -0 1 2 2 3 3 3 2 2 2 2 1 2 2 4 5 5 6 7
8 8 4 5 2 4 8 6 6 5 3 6 5 8 12 12 9 6 7 6 7 7 4 1 0 0 1 2 2 4 4 3 3 3 2 2 1 2 2 3 4 5 6 7
8 6 9 8 1 5 8 10 7 6 6 10 10 14 13 12 11 10 9 8 7 7 6 5 2 1 2 3 3 4 4 3 3 3 2 2 2 2 2 3 4 5 6 6
8 8 7 4 5 11 12 9 9 10 9 7 9 10 10 10 10 8 8 8 7 6 6 5 3 2 4 4 4 4 4 3 3 3 3 2 2 2 3 4 4 4 4 5
7 9 5 10 7 11 13 9 8 10 13 9 10 12 10 10 10 10 8 6 8 6 5 6 6 5 5 5 5 4 3 3 3 3 3 3 3 3 3 3 3 3 3 4
7 8 9 4 12 13 13 10 7 11 13 11 8 9 9 8 13 12 10 8 7 6 6 6 5 5 5 4 4 4 3 3 3 4 4 4 3 3 3 3 4 3 3 3
6 6 9 7 11 9 12 7 8 13 15 11 8 9 7 10 11 10 8 7 7 6 6 5 5 5 5 5 4 4 3 3 5 4 4 4 4 4 4 4 4 4 4 4
7 9 9 6 12 13 7 8 14 13 11 9 8 8 7 9 10 10 8 9 7 5 4 5 4 4 4 4 5 4 4 6 5 4 4 4 4 4 4 4 4 4 4 4
11 12 12 13 13 11 9 12 9 9 10 9 9 8 8 8 9 10 8 8 6 5 4 5 5 4 4 4 5 5 6 5 5 4 4 4 4 4 4 4 4 4 4 4
5 6 9 13 9 9 8 8 8 8 10 9 9 7 7 9 8 9 7 6 5 4 3 5 4 3 3 4 5 6 6 5 5 5 4 4 4 4 3 3 3 3 3 4
6 7 5 7 7 9 9 7 9 7 9 8 7 7 7 7 8 8 7 6 4 4 4 5 5 5 5 5 5 5 6 5 5 5 4 4 4 4 3 3 3 3 3 3
4 4 11 13 9 11 12 10 5 6 7 6 6 7 6 6 6 6 5 3 4 3 4 4 5 5 5 5 5 5 5 6 6 5 4 4 4 3 3 3 3 3 3 3

GFSCGP_925_temp_297.txt.gz
Temp
18 20 21 24 23 21 22 22 23 24 18 17 21 22 23 24 21 20 20 21 21 21 20 16 15 13 12 11 11 10 9 8 8 8 7 7 7 7 6 6 6 7 8 7
19 20 20 18 18 19 20 21 22 22 17 17 21 20 23 20 20 19 19 20 20 20 17 16 15 14 13 12 11 9 9 8 8 7 6 6 5 6 5 5 6 7 7 7
21 18 16 17 17 18 20 20 21 18 18 19 18 24 22 20 19 19 18 19 20 19 19 18 16 15 14 12 11 9 8 8 7 6 6 6 6 6 6 6 6 6 6 7
19 15 16 16 18 18 20 16 16 16 18 21 19 22 25 22 22 19 19 19 20 19 18 18 16 15 14 11 9 8 7 7 7 6 6 6 6 6 6 6 6 6 6 6
16 14 14 16 18 16 17 14 15 15 17 16 19 19 26 21 22 21 21 20 19 19 19 17 16 14 12 9 9 8 7 7 6 6 5 5 6 6 6 7 6 6 6 6
13 12 14 15 13 13 14 14 15 15 16 16 18 18 25 25 24 22 21 20 19 18 17 16 14 11 11 9 8 7 7 7 6 5 5 5 5 5 6 6 7 6 6 7
13 14 12 13 14 13 13 16 15 16 15 19 16 16 23 23 22 23 21 21 20 18 17 17 15 13 12 10 8 7 7 7 6 6 5 4 4 5 6 7 6 6 5 6
15 15 12 13 14 16 15 17 18 19 20 21 14 19 24 21 21 20 20 20 19 18 17 16 15 14 11 9 8 7 7 7 6 6 5 4 4 5 5 5 4 5 5 6
15 15 10 10 11 12 14 14 14 13 9 16 22 22 23 20 20 19 19 19 19 19 18 16 14 13 11 9 8 7 7 6 5 5 4 4 4 4 4 4 4 4 5 5
15 13 9 9 10 11 12 13 16 15 17 18 22 20 22 20 21 22 20 20 20 19 18 16 14 12 10 9 7 6 6 6 5 4 4 4 4 4 4 4 4 4 5 6
10 15 9 9 10 13 12 13 14 16 16 18 19 22 23 22 23 23 22 21 20 18 18 17 15 12 9 7 6 6 6 5 4 4 4 3 3 3 3 4 4 4 5 6
14 14 12 11 9 9 11 15 16 19 14 14 14 19 19 20 20 19 21 19 19 17 17 16 14 11 9 7 6 6 5 5 4 4 3 2 2 2 3 4 4 5 5 6
13 13 13 12 10 9 10 12 15 14 15 13 16 21 17 18 17 17 17 18 17 16 15 14 13 11 10 8 6 6 5 5 4 4 3 2 2 2 3 3 5 5 6 6
13 10 13 20 18 14 10 11 14 14 14 16 16 16 19 12 13 16 14 14 13 13 12 13 12 11 10 8 7 6 5 4 3 3 2 2 2 2 3 4 5 5 6 6
12 12 10 9 10 13 14 11 11 12 16 16 17 14 18 16 13 9 12 14 12 5 4 5 6 7 8 7 6 6 5 4 4 3 3 2 2 3 3 4 5 5 6 7
12 11 9 11 8 9 11 11 11 12 10 11 11 13 17 18 18 12 11 11 12 13 6 4 4 3 4 5 4 4 4 3 4 3 2 3 2 3 3 4 4 5 6 7
12 11 10 13 7 10 13 11 11 12 12 14 14 19 18 17 17 17 17 17 14 15 15 10 8 3 3 4 4 4 4 3 3 2 3 3 3 3 3 4 4 5 5 6
11 11 10 12 10 14 15 13 13 13 13 13 16 16 18 18 18 17 17 16 16 15 14 13 11 7 4 4 4 5 4 3 3 3 3 3 3 3 3 4 4 5 5 6
11 12 11 13 13 17 15 12 13 13 17 16 15 18 19 17 15 17 17 16 16 15 13 11 10 8 6 4 4 4 3 3 3 3 3 4 4 4 3 4 4 4 5 6
8 9 11 10 14 15 20 15 15 16 16 18 16 17 17 14 17 21 14 13 13 12 10 9 8 7 6 4 4 3 3 3 3 3 3 4 4 4 4 4 4 4 5 5
7 8 9 10 12 14 16 14 15 15 19 16 16 17 16 15 19 14 13 11 11 10 8 7 7 6 6 4 4 3 3 3 4 4 4 3 4 4 4 4 4 4 4 4
10 10 11 10 11 13 11 12 16 19 13 13 13 14 14 15 13 12 12 10 9 8 6 6 6 6 4 4 4 3 3 4 4 4 4 4 4 4 4 4 4 4 4 4
11 14 14 14 15 14 12 15 15 14 15 12 12 12 14 13 13 13 11 10 9 8 6 5 5 3 3 4 4 4 4 4 4 4 3 3 3 4 4 4 4 4 4 4
9 10 12 12 15 12 11 14 12 12 14 13 13 13 13 14 13 12 11 10 8 5 4 4 3 1 1 4 4 6 5 4 4 3 3 3 3 3 3 3 4 4 4 4
13 9 11 12 11 11 11 13 13 11 11 12 12 12 13 13 13 12 8 7 6 4 3 4 3 2 2 3 4 5 5 5 4 4 3 3 3 3 3 3 3 3 3 3
12 12 12 14 13 15 15 13 12 10 11 11 10 9 10 10 10 8 6 6 5 3 3 3 3 3 3 4 4 4 4 4 4 3 2 3 3 2 2 3 2 2 2 2